Find Local Weather

World > North America > United States > Wisconsin

Kimberly, Wisconsin Regional Weather

Lat: 44.28N, Lon: 88.31W
Wx Zone: WIZ038
Warning FLW WEATHER ALERT - (More Info. Click Here) Warning
Feedback
Expires:201807211300;;821110
ASUS43 KGRB 211201
RWRGRB

NORTH-CENTRAL AND NORTHEAST WISCONSIN REGIONAL WEATHER ROUNDUP
NATIONAL WEATHER SERVICE GREEN BAY WI
700 AM CDT SAT JUL 21 2018


WIZ038-039-048-051-211300-
FOX VALLEY
  
CITY           SKY/WX    TMP DP  RH WIND       PRES   REMARKS
NWS GREEN BAY  CLOUDY    65  62  90 N13       29.82R                  
APPLETON       CLOUDY    64  63  94 N16       29.81R                  
OSHKOSH        CLOUDY    67  63  87 N14       29.81R                  
FOND DU LAC    CLOUDY    69  64  84 N17       29.80R                  
$$


SKY/WX - Weather  TMP - Temperature  DP - Dewpoint  RH - Relative Humidity
WIND - Wind Direction/Speed PRES - Barometric Pressure